[[{"header":{"parameterUnit":"m.s-1","parameterCategory":1,"la1":30.2991,"la2":30.254,"lo1":-89.0895,"lo2":-89.0444,"dy":0.0017,"dx":0.0017,"nx":28,"ny":28,"refTime":"2025-08-27T21:00:00:Z","depth":0,"parameterNumber":2,"parameterNumberName":"U-component_of_WINDS"},"data":[0,0,0,0,0,0,0,0,0,0,0,0,0,0,0,0,0,0,0,0,0,0,0,0,0,0,0,0,0,0,0,0,0,0,0,0,0,0,0,0,0,0,0,0,0,0,0,0,0,0,0,0,0,0,0,0,0,0,-1.9497,-1.9498,0,-1.96,-1.9602,-1.9603,-1.9643,-1.9643,-1.9643,-1.9642,-1.9744,-1.9747,-1.975,0,0,0,0,0,0,0,0,0,0,0,0,0,-1.9331,-1.9334,-1.9497,-1.9498,-1.95,-1.96,-1.9602,-1.9603,-1.9643,-1.9643,-1.9643,-1.9642,-1.9743,-1.9746,-1.975,0,0,0,0,0,0,0,0,0,0,0,0,0,-1.9415,-1.9335,-1.9497,-1.9532,-1.9536,-1.96,-1.9602,-1.9603,-1.9643,-1.9643,-1.9642,-1.9642,-1.9742,-1.9746,-1.975,-1.9786,0,0,-1.9764,-1.9766,0,0,0,0,0,0,0,0,-1.9411,-1.9421,-1.9525,-1.953,-1.9534,-1.9609,-1.958,-1.9664,-1.9643,-1.9602,-1.9642,-1.9642,-1.9699,-1.9707,-1.9727,-1.979,-1.9795,-1.9764,-1.9767,-1.9769,-1.977,0,0,0,0,0,0,0,-1.9405,-1.9417,-1.9538,-1.9527,-1.9532,-1.9541,-1.9553,-1.9596,-1.9651,-1.9606,-1.9609,-1.9621,-1.9701,-1.9723,-1.973,-1.9796,-1.9764,-1.9768,-1.9771,-1.9773,-1.9895,-1.9895,0,0,0,0,0,0,-1.9394,-1.9412,-1.9535,-1.9541,-1.947,-1.9545,-1.9558,-1.9585,-1.9651,-1.9661,-1.9621,-1.9623,-1.9715,-1.9724,-1.9733,-1.978,-1.9769,-1.9773,-1.9776,-1.9894,-1.9895,-1.9896,0,0,0,0,0,0,-1.939,-1.9404,-1.953,-1.9478,-1.9494,-1.9548,-1.9579,-1.9587,-1.9609,-1.9663,-1.9672,-1.9633,-1.9715,-1.9727,-1.9773,-1.9784,-1.9775,-1.9779,-1.9893,-1.9894,-1.9895,-1.9872,0,0,0,0,0,0,-1.9385,-1.9403,-1.9417,-1.9478,-1.9497,-1.9569,-1.9579,-1.959,-1.9617,-1.9619,-1.9677,-1.9686,-1.9716,-1.9766,-1.9777,-1.9789,-1.9783,-1.9893,-1.9894,-1.9895,-1.9872,-1.9872,-1.9871,0,0,0,0,0,-1.9379,-1.9405,-1.9418,-1.9432,-1.9517,-1.957,-1.9581,-1.9616,-1.9618,-1.9632,-1.9667,-1.9684,-1.9781,-1.977,-1.9783,-1.9797,-1.9892,-1.9894,-1.9895,-1.9872,-1.9872,-1.9871,0,0,0,0,0,0,-1.9343,-1.9414,-1.9428,-1.9475,-1.9516,-1.9576,-1.9596,-1.9615,-1.9655,-1.9655,-1.9697,-1.9709,-1.9752,-1.9779,-1.9766,-1.9835,-1.9838,-1.9842,-1.9816,-1.9816,-1.9816,-1.9808,-1.9786,0,0,0,0,0,-1.9341,-1.9379,-1.9439,-1.9474,-1.9494,-1.9542,-1.9566,-1.959,-1.9633,-1.965,-1.9689,-1.9729,-1.9769,-1.9794,-1.9833,-1.9876,-1.9889,-1.9892,-1.9892,-1.9892,-1.9894,-1.9919,-1.9921,-1.99,-1.99,-1.99,0,0,-1.9336,-1.938,-1.9401,-1.9468,-1.9503,-1.9541,-1.9556,-1.9595,-1.9623,-1.9656,-1.9702,-1.9731,-1.9779,-1.9824,-1.9845,-1.9848,-1.9903,-1.9893,-1.9893,-1.9896,-1.9921,-1.9923,-1.9924,-1.9901,-1.9901,-1.99,0,0,-1.9347,-1.9384,-1.9418,-1.9453,-1.9506,-1.9538,-1.9546,-1.9603,-1.9625,-1.9672,-1.9698,-1.9731,-1.9799,-1.9832,-1.9858,-1.9883,-1.9899,-1.9894,-1.9894,-1.9917,-1.9919,-1.9921,-1.993,-1.9932,-1.9897,-1.9897,-1.9897,0,-1.9334,-1.9393,-1.9433,-1.9472,-1.95,-1.9534,-1.9568,-1.9599,-1.9662,-1.968,-1.9683,-1.9769,-1.9803,-1.9857,-1.9863,-1.9883,-1.9893,-1.9888,-1.9916,-1.9918,-1.992,-1.9929,-1.9932,-1.9896,-1.9896,-1.9896,-1.9896,0,-1.9375,-1.9416,-1.9437,-1.9498,-1.9529,-1.9565,-1.9609,-1.9636,-1.9657,-1.9688,-1.9736,-1.9779,-1.9828,-1.9843,-1.9863,-1.9899,-1.9899,-1.9908,-1.9911,-1.9921,-1.993,-1.9933,-1.9895,-1.9895,-1.9895,-1.9895,0,0,-1.9365,-1.9449,-1.9456,-1.9485,-1.9546,-1.9578,-1.9615,-1.9665,-1.9687,-1.9729,-1.9761,-1.9818,-1.9827,-1.9857,-1.9882,-1.9903,-1.992,-1.9909,-1.9911,-1.991,-1.9962,-1.9954,-1.9957,-1.9932,-1.9933,-1.9933,-1.9958,0,-1.9384,-1.9454,-1.9491,-1.9545,-1.9583,-1.9616,-1.9649,-1.9689,-1.972,-1.9755,-1.9788,-1.9828,-1.9838,-1.9856,-1.9878,-1.9913,-1.9931,-1.9912,-1.9961,-1.9962,-1.9948,-1.9962,-1.9954,-1.9975,-1.9961,-1.9962,-1.9962,0,-1.9415,-1.9459,-1.9517,-1.9575,-1.9592,-1.9621,-1.967,-1.9704,-1.9751,-1.9771,-1.9805,-1.983,-1.987,-1.9871,-1.9926,-1.9913,-1.9935,-1.9956,-1.9957,-1.9963,-1.9962,-1.9967,-1.9982,-1.9985,-1.9968,-1.9968,-1.9968,0,-1.9402,-1.9475,-1.952,-1.9543,-1.9612,-1.9631,-1.9661,-1.9707,-1.9735,-1.9777,-1.9796,-1.9841,-1.9866,-1.9901,-1.9937,-1.9935,-1.9989,-1.9993,-2.0007,-2.0006,-2.0016,-2.0015,-2.0034,-2.0031,-2.0031,-2.0031,-2.0031,0,-1.942,-1.9454,-1.9515,-1.9542,-1.9582,-1.9624,-1.9661,-1.9693,-1.9734,-1.9767,-1.9798,-1.9828,-1.9875,-1.9911,-1.994,-1.9982,-1.9992,-2.001,-2.0017,-2.0007,-2.0004,-2.0021,-2.0021,-2.0032,-2.0032,-2.0032,-2.0032,0,-1.9411,-1.9454,-1.9505,-1.9566,-1.9582,-1.9608,-1.9661,-1.9688,-1.972,-1.9762,-1.9774,-1.9824,-1.9868,-1.9909,-1.9967,-1.9986,-2.0028,-2.0037,-2.0013,-2.0017,-2.0028,-2.0026,-2.0059,-2.0065,-2.0058,-2.0058,-2.0058,0,-1.9419,-1.9447,-1.9512,-1.9537,-1.9566,-1.9606,-1.9635,-1.9678,-1.9706,-1.9762,-1.9783,-1.9829,-1.9869,-1.9938,-1.9979,-2.0024,-2.0034,-2.0042,-2.0041,-2.003,-2.0034,-2.0032,-2.0035,-2.0041,-2.0041,-2.0041,-2.0041,0,-1.9429,-1.9449,-1.949,-1.9539,-1.9574,-1.9614,-1.9655,-1.9673,-1.9723,-1.9754,-1.98,-1.9831,-1.9891,-1.9937,-1.9987,-2.0016,-2.0037,-2.0042,-2.0047,-2.0037,-2.0021,-2.003,-2.0011,-2.004,-2.004,-2.0041,-2.0041,-2.0041,-1.9429,-1.9455,-1.9505,-1.9551,-1.9586,-1.9624,-1.9653,-1.969,-1.9729,-1.9783,-1.9805,-1.9852,-1.9898,-1.9968,-1.9997,-2.0034,-2.0038,-2.0046,-2.0048,-2.0049,-2.0047,-2.0016,-2.0043,-2.0043,-2.0043,-2.0043,-2.0043,0,-1.9441,-1.9475,-1.9516,-1.9573,-1.9608,-1.9627,-1.9673,-1.9701,-1.9743,-1.9785,-1.9824,-1.9877,-1.9922,-1.9967,-2.0014,-2.0035,-2.0046,-2.0046,-2.0044,-2.0051,-2.004,-2.0031,-2.0037,-2.0037,-2.0037,-2.0037,-2.0036,-2.0036,-1.9451,-1.9496,-1.9522,-1.9585,-1.9619,-1.9666,-1.9691,-1.9726,-1.976,-1.9819,-1.9857,-1.9886,-1.993,-1.998,-2.0022,-2.0034,-2.005,-2.0048,-2.0062,-2.0051,-2.0052,-2.0052,-2.0043,-2.0051,-2.0051,-2.007,-2.007,-2.007]},{"header":{"parameterUnit":"m.s-1","parameterCategory":1,"la1":30.2991,"la2":30.254,"lo1":-89.0895,"lo2":-89.0444,"dy":0.0017,"dx":0.0017,"nx":28,"ny":28,"refTime":"2025-08-27T21:00:00:Z","depth":0,"parameterNumber":3,"parameterNumberName":"V-component_of_WINDS"},"data":[0,0,0,0,0,0,0,0,0,0,0,0,0,0,0,0,0,0,0,0,0,0,0,0,0,0,0,0,0,0,0,0,0,0,0,0,0,0,0,0,0,0,0,0,0,0,0,0,0,0,0,0,0,0,0,0,0,0,-1.37,-1.3701,0,-1.3736,-1.3736,-1.3737,-1.3749,-1.3748,-1.3748,-1.3748,-1.3781,-1.3782,-1.3783,0,0,0,0,0,0,0,0,0,0,0,0,0,-1.364,-1.3641,-1.37,-1.3701,-1.3701,-1.3736,-1.3736,-1.3737,-1.3749,-1.3748,-1.3748,-1.3748,-1.3781,-1.3782,-1.3783,0,0,0,0,0,0,0,0,0,0,0,0,0,-1.367,-1.3641,-1.37,-1.3711,-1.3713,-1.3736,-1.3736,-1.3737,-1.3749,-1.3748,-1.3748,-1.3748,-1.3781,-1.3782,-1.3784,-1.3797,0,0,-1.3788,-1.3789,0,0,0,0,0,0,0,0,-1.3668,-1.3672,-1.3709,-1.3711,-1.3712,-1.3738,-1.3727,-1.3757,-1.3749,-1.3735,-1.3748,-1.3748,-1.3767,-1.3769,-1.3776,-1.3799,-1.38,-1.3788,-1.3789,-1.379,-1.379,0,0,0,0,0,0,0,-1.3666,-1.3671,-1.3714,-1.371,-1.3712,-1.3714,-1.3718,-1.3733,-1.3751,-1.3736,-1.3737,-1.3741,-1.3767,-1.3775,-1.3777,-1.38,-1.3788,-1.379,-1.3791,-1.3791,-1.3835,-1.3836,0,0,0,0,0,0,-1.3663,-1.3669,-1.3713,-1.3715,-1.3689,-1.3715,-1.3719,-1.373,-1.3751,-1.3755,-1.3741,-1.3742,-1.3772,-1.3775,-1.3778,-1.3796,-1.379,-1.3791,-1.3792,-1.3835,-1.3835,-1.3836,0,0,0,0,0,0,-1.3661,-1.3666,-1.3712,-1.3692,-1.3698,-1.3716,-1.3728,-1.373,-1.3738,-1.3755,-1.3758,-1.3746,-1.3772,-1.3776,-1.3793,-1.3797,-1.3792,-1.3793,-1.3835,-1.3835,-1.3836,-1.383,0,0,0,0,0,0,-1.3659,-1.3666,-1.3672,-1.3692,-1.3699,-1.3726,-1.3728,-1.3731,-1.3741,-1.3742,-1.376,-1.3763,-1.3773,-1.379,-1.3794,-1.3799,-1.3795,-1.3834,-1.3835,-1.3835,-1.383,-1.383,-1.3831,0,0,0,0,0,-1.3657,-1.3668,-1.3672,-1.3677,-1.3707,-1.3726,-1.373,-1.3742,-1.3741,-1.3747,-1.3758,-1.3763,-1.3796,-1.3792,-1.3796,-1.3802,-1.3834,-1.3835,-1.3835,-1.383,-1.383,-1.3831,0,0,0,0,0,0,-1.3646,-1.3671,-1.3676,-1.3694,-1.3708,-1.3728,-1.3736,-1.3742,-1.3755,-1.3755,-1.3768,-1.3772,-1.3787,-1.3796,-1.3791,-1.3816,-1.3815,-1.3817,-1.3809,-1.381,-1.381,-1.3808,-1.3796,0,0,0,0,0,-1.3646,-1.3661,-1.3681,-1.3695,-1.3702,-1.3718,-1.3726,-1.3734,-1.3749,-1.3755,-1.3767,-1.378,-1.3794,-1.3802,-1.3816,-1.3831,-1.3835,-1.3837,-1.3838,-1.3838,-1.3839,-1.3847,-1.3848,-1.3838,-1.3838,-1.3838,0,0,-1.3646,-1.3661,-1.3669,-1.3693,-1.3705,-1.3719,-1.3723,-1.3737,-1.3747,-1.3756,-1.3773,-1.3782,-1.3798,-1.3814,-1.3822,-1.3822,-1.3843,-1.3838,-1.3838,-1.3839,-1.3848,-1.3849,-1.385,-1.3838,-1.3838,-1.3838,0,0,-1.3652,-1.3665,-1.3678,-1.3691,-1.3709,-1.3719,-1.3723,-1.3742,-1.3749,-1.3766,-1.3774,-1.3785,-1.3808,-1.3819,-1.3828,-1.3839,-1.3843,-1.3843,-1.3844,-1.3852,-1.3853,-1.3854,-1.3857,-1.3859,-1.3844,-1.3844,-1.3844,0,-1.3648,-1.3671,-1.3684,-1.3698,-1.3708,-1.3719,-1.3732,-1.3743,-1.3764,-1.377,-1.3771,-1.38,-1.3811,-1.383,-1.3833,-1.3839,-1.3843,-1.384,-1.3852,-1.3853,-1.3854,-1.3857,-1.3859,-1.3843,-1.3843,-1.3843,-1.3843,0,-1.3666,-1.3681,-1.3689,-1.3711,-1.3722,-1.3735,-1.375,-1.3759,-1.3766,-1.3776,-1.3793,-1.3807,-1.3824,-1.3829,-1.3835,-1.3848,-1.3848,-1.385,-1.3849,-1.3855,-1.3858,-1.386,-1.3843,-1.3843,-1.3843,-1.3843,0,0,-1.3665,-1.3695,-1.3698,-1.3708,-1.3729,-1.3741,-1.3754,-1.3772,-1.3779,-1.3794,-1.3805,-1.3825,-1.3827,-1.3837,-1.3844,-1.3852,-1.3859,-1.3853,-1.3853,-1.3853,-1.3874,-1.3872,-1.3874,-1.3862,-1.3863,-1.3863,-1.3873,0,-1.3674,-1.3701,-1.3713,-1.3733,-1.3747,-1.3758,-1.3769,-1.3783,-1.3793,-1.3806,-1.3816,-1.383,-1.3832,-1.3838,-1.3846,-1.3857,-1.3863,-1.3856,-1.3872,-1.3873,-1.3868,-1.3876,-1.3874,-1.3882,-1.3874,-1.3875,-1.3875,0,-1.3688,-1.3704,-1.3726,-1.3746,-1.3752,-1.3763,-1.378,-1.3792,-1.3807,-1.3814,-1.3825,-1.3833,-1.3847,-1.3846,-1.3865,-1.3859,-1.3867,-1.3873,-1.3874,-1.3875,-1.3874,-1.3877,-1.3886,-1.3887,-1.3877,-1.3877,-1.3877,0,-1.3686,-1.3712,-1.3729,-1.3737,-1.3761,-1.3768,-1.3778,-1.3794,-1.3803,-1.3818,-1.3824,-1.3839,-1.3848,-1.3859,-1.387,-1.3868,-1.3888,-1.3888,-1.3893,-1.3893,-1.3896,-1.3896,-1.3906,-1.3902,-1.3902,-1.3901,-1.3901,0,-1.3694,-1.3707,-1.3728,-1.3738,-1.3753,-1.3767,-1.3781,-1.3791,-1.3805,-1.3817,-1.3826,-1.3837,-1.3851,-1.3863,-1.3872,-1.3886,-1.389,-1.3895,-1.3897,-1.3894,-1.3894,-1.3899,-1.3899,-1.3902,-1.3902,-1.3902,-1.3902,0,-1.3694,-1.3709,-1.3727,-1.3749,-1.3754,-1.3764,-1.3782,-1.3792,-1.3802,-1.3817,-1.3821,-1.3838,-1.3852,-1.3865,-1.3884,-1.389,-1.3904,-1.3907,-1.3899,-1.3901,-1.3905,-1.3904,-1.3918,-1.3921,-1.3915,-1.3915,-1.3915,0,-1.3698,-1.3709,-1.3732,-1.3741,-1.3751,-1.3765,-1.3776,-1.379,-1.38,-1.3819,-1.3826,-1.3842,-1.3855,-1.3878,-1.3891,-1.3905,-1.3908,-1.3912,-1.391,-1.3907,-1.3908,-1.3907,-1.3908,-1.3912,-1.3912,-1.3912,-1.3912,0,-1.3704,-1.3711,-1.3726,-1.3744,-1.3756,-1.377,-1.3785,-1.3791,-1.3808,-1.3818,-1.3834,-1.3845,-1.3865,-1.388,-1.3896,-1.3905,-1.3911,-1.3913,-1.3915,-1.3911,-1.3907,-1.3909,-1.39,-1.3912,-1.3912,-1.3912,-1.3912,-1.3912,-1.3706,-1.3716,-1.3734,-1.375,-1.3763,-1.3776,-1.3787,-1.3799,-1.3813,-1.3831,-1.3838,-1.3854,-1.387,-1.3892,-1.3901,-1.3914,-1.3914,-1.3917,-1.3918,-1.3918,-1.3918,-1.3905,-1.3916,-1.3916,-1.3916,-1.3916,-1.3916,0,-1.3713,-1.3725,-1.374,-1.3761,-1.3773,-1.3779,-1.3795,-1.3805,-1.382,-1.3834,-1.3847,-1.3865,-1.388,-1.3894,-1.391,-1.3917,-1.392,-1.392,-1.392,-1.3922,-1.3916,-1.3913,-1.3918,-1.3918,-1.3918,-1.3918,-1.3918,-1.3918,-1.3718,-1.3735,-1.3744,-1.3767,-1.3779,-1.3796,-1.3805,-1.3816,-1.3828,-1.3848,-1.3861,-1.3871,-1.3885,-1.3901,-1.3915,-1.3919,-1.3924,-1.3924,-1.3928,-1.3922,-1.3922,-1.3922,-1.3919,-1.3925,-1.3925,-1.3933,-1.3933,-1.3933]}]]